Regional Weather Roundup
Issued by NWS Bismarck, ND

Home | Current Version | Previous Version | Text Only | Print | Product List | Glossary On
Versions: 1 2 3 4 5 6 7 8 9 10 11 12 13 14 15 16 17 18 19 20 21 22 23 24 25 26 27 28 29 30 31 32 33 34 35 36 37 38 39 40 41 42 43 44 45 46 47 48 49 50
000
ASUS43 KBIS 290310
RWRBIS

NWR BROADCAST TEXT
NATIONAL WEATHER SERVICE BISMARCK ND
1000 PM CDT FRI AUG 28 2015

NOTE: "FAIR" INDICATES FEW OR NO CLOUDS BELOW 12,000 FEET WITH NO
SIGNIFICANT WEATHER AND/OR OBSTRUCTIONS TO VISIBILITY.


CITY           SKY/WX    TMP DP  RH WIND       PRES   REMARKS
WILLISTON      CLOUDY    69  48  47 CALM      29.91R HAZE
MINOT          MOCLDY    71  61  70 E3        29.88R
MINOT AFB      MOCLDY    69  64  83 E6        29.87R
BISMARCK       PTCLDY    71  65  81 SE3       29.91R
DICKINSON      PTCLDY    66  51  58 W10       29.96R
GARRISON         N/A     71  30  21 CALM      29.90R
HETTINGER ARPT CLOUDY    63  54  72 CALM      30.00R HAZE
JAMESTOWN      CLEAR     71  66  84 S9        29.91R
CROSBY         FAIR      66  52  59 W9        29.90R HAZE
HARVEY         FAIR      66  64  94 CALM      29.90R
HAZEN          FAIR      64  57  77 S5        29.91R
LINTON         FAIR      68  68 100 SE9       29.93R
OAKES            N/A     68  57  68 S8        29.95S
RUGBY          FAIR      68  66  94 CALM      29.89R
STANLEY        CLOUDY    66  54  63 W5        29.93R
$$

CITY           SKY/WX    TMP DP  RH WIND       PRES   REMARKS
GRAND FORKS    PTCLDY    70  67  90 S9        29.86R
GRAND FORKS AF CLEAR     71  68  90 S8        29.87R
DEVILS LAKE    CLEAR     66  59  77 CALM      29.88R
FARGO          CLEAR     74  64  71 S15       29.92R
CAVALIER       FAIR      68  66  94 CALM      29.86R
GRAFTON        FAIR      70  70 100 S6        29.86R
GWINNER          N/A     70  70 100 S9        29.96R
LANGDON        FAIR      68  64  88 NE5       29.91R
ROLLA          CLOUDY    59  59 100 NW5       29.92S
WALHALLA       FAIR      70  70 100 MISG      29.87S
$$

CITY           SKY/WX    TMP DP  RH WIND       PRES   REMARKS
ABERDEEN       CLEAR     68  65  90 S6        29.97R
MOBRIDGE       PTCLDY    71  68  90 SE8       29.94R
BUFFALO          N/A     70  52  52 W6        29.98R
RAPID CITY     CLEAR     66  59  78 CALM      30.07R
GLASGOW        CLOUDY    72  40  31 E3        29.91R HAZE
SIDNEY         MOCLDY    70  46  43 CALM      29.92R
WOLF POINT     CLOUDY    66  49  54 CALM      29.91R HAZE
GLENDIVE       CLOUDY    73  43  33 CALM      29.97R
MILES CITY     CLOUDY    78  40  25 S6        29.97R HAZE
BAKER          CLOUDY    65  48  54 CALM      30.02R HAZE
$$

CITY           SKY/WX    TMP DP  RH WIND       PRES   REMARKS
BILLINGS       MOCLDY    81  37  20 SE5       30.02R
GREAT FALLS    CLOUDY    78  39  24 W20G26    29.97R HAZE
REGINA         MOCLDY    66  55  68 SE3       29.85S SMOKE
ESTEVAN        CLOUDY    66  63  88 S5        29.88R SMOKE
$$



USA.gov is the U.S. government's official web portal to all federal, state and local government web resources and services.